Location: Ledbetter Hills
(32.6924°N, 96.9261°W)
Time: 04:58:23
(UTC+00:00)

Daily predictions for brighter satellites

Satellite Brightness Start Highest point End
(mag) Time Altitude Azimuth Time Altitude Azimuth Time Altitude Azimuth
Cosmos 1743 Rocket 3.7 00:00:16 10° N 00:04:35 79° W 00:08:54 10° S
Cosmos 990 Rocket 4.0 00:03:00 10° NNW 00:08:12 85° WSW 00:13:20 10° SSE
CZ-2D R/B 3.5 00:05:12 10° SSE 00:08:52 46° ENE 00:12:33 10° N
CORIOLIS 4.1 00:03:35 10° SSE 00:08:57 82° ENE 00:14:22 10° N
CZ-4B DEB 4.2 00:05:12 10° SSE 00:10:41 71° ENE 00:16:11 10° N
Cosmos 1634 Rocket 4.0 00:05:38 10° S 00:11:57 88° E 00:18:19 10° N
Cosmos 1340 Rocket 4.1 00:08:28 10° NNW 00:12:22 45° W 00:16:15 10° SSW
Meteor 2-21 4.4 00:07:15 10° N 00:13:14 59° E 00:19:10 10° SSE
Cosmos 1328 Rocket 4.2 00:10:28 10° SSE 00:14:27 33° E 00:18:27 10° NNE
Cosmos 1666 Rocket 4.3 00:12:06 10° NNE 00:16:02 30° E 00:19:54 10° SE
CZ-2C R/B 2.2 00:12:54 10° SW 00:16:50 37° SSE 00:19:38 16° E
COSMOS 2406 4.5 00:17:21 10° SW 00:22:43 40° WNW 00:28:06 10° N
ARGOS 3.6 00:20:48 10° SE 00:25:47 39° ENE 00:30:46 10° N
Cosmos 2026 Rocket 3.9 00:20:40 10° N 00:26:48 88° E 00:32:51 10° S
Cosmos 1500 3.0 00:23:38 10° N 00:27:22 72° E 00:31:03 10° SSE
COSMOS 2455 3.7 00:23:15 10° SW 00:29:02 49° WNW 00:34:53 10° NNE
SKYMED 2 3.5 00:24:45 10° NNE 00:29:07 79° ESE 00:33:26 10° S
Landsat 5 3.4 00:26:46 10° NNE 00:30:46 53° E 00:34:35 10° S
Cosmos 858 Rocket 4.4 00:26:54 10° NNW 00:32:11 74° ENE 00:37:25 10° SSE
MOS 1-B Rocket 4.4 00:27:57 10° N 00:34:02 75° WNW 00:41:05 10° SSW
Meteor 2-6 Rocket 4.3 00:29:01 10° S 00:34:45 62° E 00:40:21 10° NNE
USA 229 DEB 3.9 00:27:14 10° NNW 00:34:49 84° ENE 00:42:45 10° SSE
USA 229 3.9 00:27:20 10° NNW 00:34:55 84° ENE 00:42:50 10° SSE
PSLV R/B 4.2 00:31:36 10° S 00:35:13 61° W 00:38:53 10° NNW
Meteor 2-14 Rocket 4.5 00:30:55 10° N 00:37:02 83° W 00:43:05 10° S
Cosmos 1570 Rocket 4.0 00:32:55 10° SSW 00:38:10 85° WNW 00:43:26 10° NNE
PAYLOAD B 4.3 00:32:52 10° SSE 00:38:28 83° WSW 00:44:07 10° NNW
Cosmos 2180 Rocket 4.4 00:36:44 10° S 00:43:03 74° E 00:49:21 10° N
USA 234 3.2 00:37:34 10° SE 00:44:04 71° NE 00:50:35 10° NW
CZ-4B R/B 3.1 00:38:44 10° SSE 00:44:11 75° ENE 00:49:34 10° N
Sich 1 3.7 00:40:32 10° NNW 00:44:45 56° W 00:48:58 10° S
Cosmos 1814 Rocket 4.5 00:39:55 10° SSW 00:45:06 62° WNW 00:50:16 10° N
GPS 2-04 Rocket1 2.8 00:41:44 10° WNW 00:45:50 61° N 00:47:01 41° ENE
H-2A R/B 3.8 00:49:34 18° SE 00:49:34 18° SE 00:51:15 10° SSE
Cosmos 1900 4.5 00:46:29 10° SSW 00:51:18 70° WNW 00:54:41 20° NNE
deb Chang Zheng 4 3.4 00:47:21 10° SSE 00:51:38 85° ENE 00:55:58 10° NNW
BREEZE M DEB (TANK) 4.0 00:33:54 10° NW 00:51:57 80° NE 00:55:30 22° ESE
CZ-4C R/B 2.7 00:51:57 48° NNE 00:52:45 81° ESE 00:56:06 10° S
Meteor 2-8 Rocket 4.4 00:47:22 10° S 00:53:30 88° E 00:59:41 10° N
Meteor 1-10 Rocket 4.2 00:48:08 10° S 00:53:53 66° E 00:59:17 11° NNE
CZ-2C R/B 3.1 00:49:04 10° N 00:54:09 59° WNW 00:59:12 10° SSW
Cosmos 1515 Rocket 3.6 00:51:22 10° S 00:55:42 54° E 00:56:50 41° NE
Cosmos 1666 2.5 00:53:14 10° N 00:56:58 89° WSW 01:00:39 10° S
Feng Yun 1-1 Rocket 4.3 01:00:11 10° SSE 01:05:59 60° ENE 01:11:46 10° N
X-37B 1.9 01:04:48 10° SW 01:06:34 34° SW 01:06:34 34° SW
Cosmos 1867 3.8 01:05:32 10° S 01:10:39 46° ESE 01:10:39 46° ESE
H-2A R/B 3.5 01:08:09 10° SSW 01:13:00 38° W 01:17:46 10° NNW
USA 276 3.5 01:11:27 10° WNW 01:13:40 37° W 01:13:40 37° W
APEX 3.3 01:10:53 10° SSW 01:15:22 78° WNW 01:15:26 77° NW
CZ-4C R/B 3.1 01:09:55 10° NNW 01:17:30 58° ENE 01:21:47 31° ESE
Cosmos 921 Rocket 3.8 01:19:04 10° SSW 01:23:05 48° WNW 01:24:15 37° NNW
Tiangong 4.1 01:21:17 10° SSW 01:21:18 10° SSW 01:21:18 10° SSW
USA 32 3.8 01:19:52 10° S 01:25:05 82° E 01:25:45 68° NNE
Cosmos 1633 Rocket 4.3 01:24:31 10° NNW 01:28:37 40° W 01:32:43 10° SSW
Okean O Rocket 3.1 01:28:14 10° SSW 01:32:20 37° W 01:36:28 10° NNW
Cosmos 1980 Rocket 3.3 01:36:01 10° NW 01:41:20 43° WSW 01:46:35 10° S
Cosmos 2266 Rocket 4.4 01:47:24 10° NNW 01:53:42 62° W 02:00:00 10° S
CZ-2C R/B 3.6 01:52:07 10° W 01:53:47 23° W 01:53:47 23° W
ATLAS 3B CENTAUR R/B 4.3 01:38:16 10° W 01:58:09 75° S 02:02:43 52° ESE
Meteor 1-27 Rocket 4.5 01:56:05 10° SSW 02:01:25 48° W 02:01:40 47° WNW
Cosmos 2369 Rocket 4.0 10:05:54 26° E 10:05:54 26° E 10:09:57 10° NE
CENTAUR R/B 4.3 10:38:46 19° N 10:38:46 19° N 10:40:44 10° NNE
DELTA 2 R/B (1) 4.1 10:47:13 53° NE 10:47:13 53° NE 10:51:27 10° ENE
Cosmos 2082 Rocket 3.8 10:50:12 22° S 10:50:12 22° S 10:52:11 10° S
Cosmos 2034 Rocket 3.9 10:51:34 79° N 10:52:00 89° W 10:58:20 10° S
OAO 3 Rocket 3.9 10:55:21 50° SE 10:55:21 50° SE 10:59:11 10° ESE
Cosmos 1570 Rocket 3.8 11:11:19 75° NW 11:11:42 81° WSW 11:16:57 10° SSE
Cosmos 1634 Rocket 4.5 11:06:54 10° N 11:13:05 60° E 11:19:11 10° SSE
Tsikada Rocket 3.9 11:09:23 10° SSW 11:15:26 59° W 11:21:37 10° N
Cosmos 1814 Rocket 4.0 11:17:44 56° SW 11:17:44 56° SW 11:22:17 10° S
ATLAS 5 CENTAUR R/B 3.9 11:15:06 10° SSE 11:17:50 20° ESE 11:20:40 10° ENE
Hubble Space Telescope 2.4 11:29:19 22° SSW 11:29:25 22° SSW 11:32:37 10° SSE
Meteor 1-31 Rocket 3.2 11:25:51 10° NNE 11:29:43 62° E 11:33:35 10° S
Centaur D-1A AC-35 3.9 11:27:36 17° SW 11:30:23 27° S 11:33:33 10° ESE
Cosmos 921 Rocket 3.3 11:30:39 22° N 11:33:26 69° ENE 11:37:53 10° SSE
Cosmos 1782 2.6 11:33:13 66° WNW 11:33:33 71° W 11:37:27 10° S
APEX 4.1 11:36:03 31° SSW 11:36:03 31° SSW 11:38:20 10° S
Cosmos 1862 3.2 11:31:46 10° S 11:35:41 82° E 11:39:37 10° N
H-2A R/B 2.5 11:34:47 21° N 11:37:11 68° WNW 11:40:55 10° SSW
Cosmos 1241 Rocket 4.3 11:34:24 26° NNW 11:38:05 78° WSW 11:44:16 10° SSE
Cosmos 2263 4.2 11:32:37 10° SSW 11:38:11 60° WNW 11:43:51 10° NNE
YAOGAN 6 4.0 11:40:32 24° SW 11:40:32 24° SW 11:42:09 10° SSW
Okean 3 Rocket 3.6 11:35:01 10° S 11:39:31 83° E 11:44:04 10° N
SAR-Lupe-3 4.4 11:37:41 10° N 11:41:17 81° WNW 11:44:53 10° SSW
Meteor 1-26 Rocket 4.3 11:38:32 13° NNW 11:43:41 58° W 11:49:13 10° S
Cosmos 2208 Rocket 4.3 11:43:24 31° NW 11:45:35 47° WSW 11:50:40 10° S
Cosmos 1867 3.8 11:43:55 33° WNW 11:45:58 49° WSW 11:51:10 10° S
Cosmos 1503 Rocket 3.9 11:41:20 10° SSW 11:46:34 76° WNW 11:51:53 10° NNE
Gbstr 26 Del rocket 3.1 11:46:53 41° W 11:47:49 52° SW 11:52:09 10° SSE
Cosmos 1151 Rocket 3.1 11:43:31 10° N 11:47:55 80° E 11:52:17 10° S
Cosmos 1766 Rocket 3.4 11:44:05 10° SSW 11:48:23 66° W 11:52:41 10° N
Cosmos 2369 Rocket 2.8 11:47:55 29° W 11:49:10 32° WNW 11:54:10 10° N
BREEZE-M DEB (TANK) 4.1 11:37:03 16° NW 11:51:23 76° NE 11:56:17 10° ESE
SJ-12 4.2 11:48:07 10° N 11:52:04 44° WNW 11:55:59 10° SSW
